Location: Kervinic
(48.4279°N, 4.7373°W)
Time: 17:08:55
(UTC+00:00)

STARLINK-1200 - Pass Details

Date: 09 April 2020
Orbit: 549 x 550 km, 53.0° (Epoch: 29 May)

Event Time Altitude Azimuth Distance (km) Brightness Sun altitude
Rises 19:27:33 0° 290° (WNW) 2,732 10.3 -4.9°
Reaches altitude 10° 19:29:51 10° 295° (WNW) 1,837 8.1 -5.3°
Maximum altitude 19:33:55 50° 12° (NNE) 708 4.3 -5.9°
Drops below altitude 10° 19:38:00 10° 89° (E) 1,835 5.7 -6.6°
Enters shadow 19:38:36 - 91° (E) 2,066 5.9 -6.7°
